Location: Gollag?dem
(17.0207°N, 80.7261°E)
Time: 00:33:53
(UTC+00:00)

Fermi - Pass Details

Date: 03 August 2024
Orbit: 505 x 519 km, 25.6° (Epoch: 18 September)

Event Time Altitude Azimuth Distance (km) Brightness Sun altitude
Exits shadow 22:47:15 45° 314° (NW) 697 4.1 -20.9°
Maximum altitude 22:48:16 68° 19° (NNE) 552 3.9 -20.7°
Drops below altitude 10° 22:52:14 10° 102° (ESE) 1,718 7.1 -19.8°
Sets 22:54:28 0° 105° (ESE) 2,600 8.0 -19.3°
